Weather in Yertsevo

Russia / Arkhangel'skaya Oblast'     60°47′48″N   40°05′07″E
temp.,
°C
wind,
m/s
gust,
m/s
humid.,
%
clouds,
%
prec.,
mm/h
press.,
hPa
HPBL,
m
9 december, thu
thu900:00−18wsw2710086 0.0 1023109
03:00−19wsw2610077 0.0 102494
06:00−19wsw2610081 0.0 102484
09:00−19wsw2610091 0.0 102598
12:00−16w279766 0.0 1026161
15:00−16w269893 0.1 1027128
18:00−18wnw2610081 0.0 102882
21:00−19wnw2510080 0.0 103071
10 december, fri
fri1000:00−21wnw1110087 0.0 10329
03:00−20wnw1110076 0.0 103311
06:00−21w1110062 0.0 10359
09:00−21wsw1110076 0.0 10359
12:00−15ssw129763 0.0 103647
15:00−18s119957 0.0 10379
18:00−20sse1110077 0.0 103911
21:00−19s2510073 0.0 103963
11 december, sat
sat1100:00−18sse279873 0.0 1039105
03:00−17sse2996100 0.0 1039148
06:00−16sse3119526 0.0 1039189
09:00−15sse3129241 0.0 1039228
12:00−13sse3138953 0.0 1038303
15:00−13sse31290100 0.0 1038269
18:00−13sse31388100 0.0 1038283
21:00−12s3138891 0.0 1038312
12 december, sun
sun1200:00−13s3138856 0.0 1038283
03:00−13s3128855 0.0 1038250
06:00−15sse3119050 0.0 1037201
09:00−15sse313885 0.0 1037227
12:00−12s3138599 0.0 1036291
15:00−11s3128677 0.0 1035280
18:00−10s4138755 0.0 1034319
21:00−8s41389100 0.0 1033319
13 december, mon
mon1300:00−7s4129194 0.0 1032319
03:00−8ssw31194100 0.0 1032284
06:00−6s3996100 0.0 1032278
09:00−5ssw3996100 0.1 1031276
12:00−5ssw3995100 0.0 1031271
15:00−6s2793100 0.1 1031240
18:00−7s2792100 0.1 1030197
21:00−7s2791100 0.1 1029197